EXPRESS-AT2

Last updated on Mon Feb 16 2026 00:02:48 GMT+0000 (Coordinated Universal Time)

1 39613U 14010B 26046.78209179 .00000000 00000+0 00000+0 0 9997 2 39613 0.0224 118.5251 0001486 159.1357 289.5239 1.00273611 43281
UTC large
Height (km)
Speed (km/s)
/
Latitude / Longitude
Inclination (degrees)
Orbital Period (minutes)
Azimuth
Elevation
Range (km)
Doppler Factor

Next 0 passes for location: London (51.5072 / 0.1276)

Sorry there are no passes over London.